This demonstration page uses our WeatherBlox Daily Observations layout. Learn more.

Left ArrowRight Arrow

Hourly Observations for June 23, 2020

Temp ( °F °C ) Dew Point ( °F °C ) Humidity (%) Winds ( mph kmh ) Pressure ( in mb ) Visibility ( mi km ) Precip ( " mm )
12:53 am 00:53 Clear 87 30.6 59 15 39 39 SE 21 33 29.68 1005 10 16 0.00 0.00
1:53 am 01:53 Clear 88 31.1 61 16.1 40 40 SSE 28 44 29.66 1004 10 16 0.00 0.00
2:40 am 02:40 Clear 88 31.1 61 16.1 40 40 ENE 17 28 29.71 1006 10 16 0.00 0.00
2:53 am 02:53 Hazy 80 26.7 59 15 49 49 NE 29 46 29.78 1008 4 6 0.00 0.00
2:58 am 02:58 Mostly Cloudy with Haze 77 25 58 14.4 52 52 ENE 24 39 29.79 1009 2 3 0.00 0.00
3:05 am 03:05 Mostly Cloudy with Haze 77 25 57 13.9 50 50 NE 25 41 29.79 1009 2 3 0.00 0.00
3:14 am 03:14 Cloudy with Haze 76 24.4 56 13.3 50 50 NE 22 35 29.81 1009 2 3 0.00 0.00
3:22 am 03:22 Cloudy with Haze 76 24.4 56 13.3 50 50 NE 24 39 29.82 1010 3 4 0.00 0.00
3:35 am 03:35 Cloudy with Haze 76 24.4 56 13.3 50 50 ENE 22 35 29.81 1009 3 5 0.00 0.00
3:53 am 03:53 Cloudy with Haze 76 24.4 55 12.8 48 48 ENE 18 30 29.80 1009 3 5 0.00 0.00
4:35 am 04:35 Cloudy with Haze 76 24.4 55 12.8 48 48 ENE 23 37 29.82 1010 6 10 0.00 0.00
4:53 am 04:53 Cloudy with Haze 75 23.9 56 13.3 52 52 E 21 33 29.80 1009 5 8 0.00 0.00
5:09 am 05:09 Cloudy 74 23.3 57 13.9 56 56 E 22 35 29.81 1009 7 11 0.00 0.00
5:35 am 05:35 Mostly Cloudy 73 22.8 57 13.9 57 57 E 20 31 29.80 1009 10 16 0.00 0.00
5:53 am 05:53 Partly Cloudy 73 22.8 57 13.9 57 57 E 15 24 29.80 1009 10 16 0.00 0.00
6:53 am 06:53 Sunny 73 22.8 57 13.9 57 57 ESE 9 15 29.80 1009 10 16 0.00 0.00
7:53 am 07:53 Sunny 74 23.3 57 13.9 56 56 WNW 5 7 29.88 1012 10 16 0.00 0.00
8:53 am 08:53 Cloudy 76 24.4 57 13.9 52 52 WNW 3 6 29.91 1013 10 16 0.00 0.00
9:53 am 09:53 Partly Cloudy 79 26.1 56 13.3 45 45 Calm 29.91 1013 10 16 0.00 0.00
10:53 am 10:53 Sunny 82 27.8 56 13.3 41 41 SW 5 7 29.91 1013 10 16 0.00 0.00
11:53 am 11:53 Sunny 84 28.9 56 13.3 38 38 SSW 5 7 29.90 1013 10 16 0.00 0.00
12:53 pm 12:53 Sunny 89 31.7 56 13.3 33 33 SSW 7 11 29.87 1012 10 16 0.00 0.00
1:53 pm 13:53 Sunny 90 32.2 55 12.8 31 31 S 7 11 29.84 1011 10 16 0.00 0.00
2:53 pm 14:53 Sunny 93 33.9 55 12.8 28 28 NW 9 15 29.82 1010 10 16 0.00 0.00
4:53 pm 16:53 Mostly Cloudy 95 35 54 12.2 25 25 ENE 9 15 29.78 1008 10 16 0.00 0.00
5:53 pm 17:53 Mostly Sunny 95 35 53 11.7 24 24 NE 8 13 29.76 1008 10 16 0.00 0.00
6:53 pm 18:53 Sunny 95 35 54 12.2 25 25 E 14 22 29.75 1007 10 16 0.00 0.00
7:53 pm 19:53 Sunny 92 33.3 55 12.8 29 29 E 16 26 29.77 1008 10 16 0.00 0.00
8:53 pm 20:53 Sunny 89 31.7 54 12.2 30 30 E 13 20 29.79 1009 10 16 0.00 0.00
9:53 pm 21:53 Clear 86 30 55 12.8 35 35 E 13 20 29.82 1010 10 16 0.00 0.00
10:53 pm 22:53 Clear 84 28.9 56 13.3 38 38 E 14 22 29.85 1011 10 16 0.00 0.00
11:53 pm 23:53 Mostly Cloudy with Nearby Thunderstorms 83 28.3 58 14.4 43 43 N 17 28 29.93 1014 10 16 0.00 0.00

Powered by AerisWeather